TimeEST,TemperatureF,Dew PointF,Humidity,Sea Level PressureIn,VisibilityMPH,Wind Direction,Wind SpeedMPH,Gust SpeedMPH,PrecipitationIn,Events,Conditions,WindDirDegrees,DateUTC
12:15 AM,25.5,23.2,91,30.12,7.0,Calm,Calm,-,N/A,,Overcast,0,2013-01-26 05:15:00
12:35 AM,26.2,23.9,91,30.12,10.0,Calm,Calm,-,N/A,,Overcast,0,2013-01-26 05:35:00
12:55 AM,26.6,24.3,91,30.11,7.0,Calm,Calm,-,N/A,,Overcast,0,2013-01-26 05:55:00
1:15 AM,26.6,24.3,91,30.11,10.0,Calm,Calm,-,N/A,,Overcast,0,2013-01-26 06:15:00
1:35 AM,26.6,24.1,90,30.11,10.0,Calm,Calm,-,N/A,,Overcast,0,2013-01-26 06:35:00
1:55 AM,25.3,22.8,90,30.11,7.0,Calm,Calm,-,N/A,,Mostly Cloudy,0,2013-01-26 06:55:00
2:15 AM,25.3,23.0,91,30.11,5.0,Calm,Calm,-,N/A,,Scattered Clouds,0,2013-01-26 07:15:00
2:35 AM,25.3,23.0,91,30.11,1.5,Calm,Calm,-,N/A,,Mist,0,2013-01-26 07:35:00
2:55 AM,23.2,21.2,92,30.11,0.8,Calm,Calm,-,N/A,,Mist,0,2013-01-26 07:55:00
3:15 AM,21.6,19.4,91,30.12,0.2,Calm,Calm,-,N/A,Fog,Light Freezing Fog,0,2013-01-26 08:15:00
3:35 AM,20.3,18.3,92,30.12,0.2,Calm,Calm,-,N/A,Fog,Light Freezing Fog,0,2013-01-26 08:35:00
3:55 AM,18.7,16.3,91,30.13,0.2,Calm,Calm,-,N/A,Fog,Light Freezing Fog,0,2013-01-26 08:55:00
4:15 AM,18.7,16.5,91,30.12,0.8,Calm,Calm,-,N/A,,Mist,0,2013-01-26 09:15:00
4:35 AM,18.0,15.4,90,30.13,0.2,Calm,Calm,-,N/A,Fog,Light Freezing Fog,0,2013-01-26 09:35:00
4:55 AM,18.0,15.6,91,30.13,2.5,Calm,Calm,-,N/A,,Scattered Clouds,0,2013-01-26 09:55:00
5:15 AM,17.1,14.7,91,30.14,7.0,Calm,Calm,-,N/A,,Clear,0,2013-01-26 10:15:00
5:35 AM,16.7,14.4,91,30.14,7.0,Calm,Calm,-,N/A,,Clear,0,2013-01-26 10:35:00
5:55 AM,16.0,13.8,91,30.16,5.0,Calm,Calm,-,N/A,,Clear,0,2013-01-26 10:55:00
6:15 AM,16.7,14.5,91,30.16,1.8,Calm,Calm,-,N/A,,Mostly Cloudy,0,2013-01-26 11:15:00
6:35 AM,16.7,14.4,91,30.17,5.0,Calm,Calm,-,N/A,,Overcast,0,2013-01-26 11:35:00
6:55 AM,18.0,15.6,91,30.17,10.0,Calm,Calm,-,N/A,,Overcast,0,2013-01-26 11:55:00
7:15 AM,18.5,16.2,91,30.18,7.0,Calm,Calm,-,N/A,,Overcast,0,2013-01-26 12:15:00
7:35 AM,22.1,19.9,91,30.19,5.0,Calm,Calm,-,N/A,,Overcast,0,2013-01-26 12:35:00
7:55 AM,25.3,23.0,91,30.20,3.0,Calm,Calm,-,N/A,,Overcast,0,2013-01-26 12:55:00
8:15 AM,25.3,23.0,91,30.22,2.5,Calm,Calm,-,N/A,,Overcast,0,2013-01-26 13:15:00
8:35 AM,25.3,23.0,91,30.23,2.0,Calm,Calm,-,N/A,,Overcast,0,2013-01-26 13:35:00
8:55 AM,25.5,23.4,92,30.23,1.5,Calm,Calm,-,N/A,,Overcast,0,2013-01-26 13:55:00
9:15 AM,26.6,24.6,92,30.25,2.0,Calm,Calm,-,N/A,,Overcast,0,2013-01-26 14:15:00
9:35 AM,25.9,23.7,92,30.26,3.0,Calm,Calm,-,N/A,,Overcast,0,2013-01-26 14:35:00
9:55 AM,26.6,24.6,92,30.27,3.0,Calm,Calm,-,N/A,,Overcast,0,2013-01-26 14:55:00
10:15 AM,26.6,24.6,92,30.27,4.0,Calm,Calm,-,N/A,,Overcast,0,2013-01-26 15:15:00
10:35 AM,27.7,25.7,92,30.28,4.0,Calm,Calm,-,N/A,,Overcast,0,2013-01-26 15:35:00
10:55 AM,27.7,25.7,92,30.28,4.0,NNW,3.5,-,N/A,,Overcast,340,2013-01-26 15:55:00
11:15 AM,26.8,24.6,92,30.28,7.0,Calm,Calm,-,N/A,,Overcast,0,2013-01-26 16:15:00
11:35 AM,26.6,24.6,92,30.27,7.0,North,4.6,-,N/A,,Overcast,10,2013-01-26 16:35:00
11:55 AM,27.9,25.7,92,30.27,7.0,North,4.6,-,N/A,,Overcast,360,2013-01-26 16:55:00
12:15 PM,27.9,25.3,90,30.27,7.0,North,4.6,-,N/A,,Overcast,360,2013-01-26 17:15:00
12:35 PM,27.9,25.2,90,30.26,10.0,Calm,Calm,-,N/A,,Overcast,0,2013-01-26 17:35:00
12:55 PM,30.2,27.5,90,30.26,10.0,Calm,Calm,-,N/A,,Mostly Cloudy,0,2013-01-26 17:55:00
1:15 PM,30.2,26.8,87,30.25,10.0,Calm,Calm,-,N/A,,Overcast,0,2013-01-26 18:15:00
1:35 PM,30.2,26.8,87,30.24,7.0,Calm,Calm,-,N/A,,Mostly Cloudy,0,2013-01-26 18:35:00
1:55 PM,30.2,27.0,88,30.24,7.0,Calm,Calm,-,N/A,,Mostly Cloudy,0,2013-01-26 18:55:00
2:15 PM,30.2,26.6,86,30.24,10.0,East,3.5,-,N/A,,Mostly Cloudy,80,2013-01-26 19:15:00
2:35 PM,30.2,27.0,88,30.25,10.0,Calm,Calm,-,N/A,,Overcast,0,2013-01-26 19:35:00
2:55 PM,30.2,27.1,88,30.26,10.0,Calm,Calm,-,N/A,,Overcast,0,2013-01-26 19:55:00
3:15 PM,30.2,26.6,86,30.26,10.0,Calm,Calm,-,N/A,,Overcast,0,2013-01-26 20:15:00
3:35 PM,30.2,26.6,86,30.27,10.0,Calm,Calm,-,N/A,,Overcast,0,2013-01-26 20:35:00
3:55 PM,30.2,26.4,86,30.27,10.0,Calm,Calm,-,N/A,,Mostly Cloudy,0,2013-01-26 20:55:00
4:35 PM,30.2,27.1,88,30.28,7.0,Calm,Calm,-,N/A,,Overcast,0,2013-01-26 21:35:00
4:55 PM,30.2,26.8,87,30.29,10.0,Calm,Calm,-,N/A,,Scattered Clouds,0,2013-01-26 21:55:00
5:15 PM,30.2,27.3,89,30.30,10.0,Calm,Calm,-,N/A,,Clear,0,2013-01-26 22:15:00
5:35 PM,30.2,27.5,90,30.30,7.0,Calm,Calm,-,N/A,,Clear,0,2013-01-26 22:35:00
5:55 PM,27.1,24.4,90,30.31,7.0,Calm,Calm,-,N/A,,Clear,0,2013-01-26 22:55:00
6:15 PM,25.9,23.7,92,30.32,5.0,Calm,Calm,-,N/A,,Clear,0,2013-01-26 23:15:00
6:35 PM,25.3,23.0,91,30.33,4.0,Calm,Calm,-,N/A,,Clear,0,2013-01-26 23:35:00
6:55 PM,25.3,23.0,91,30.33,3.0,Calm,Calm,-,N/A,,Clear,0,2013-01-26 23:55:00
7:15 PM,25.3,23.0,91,30.34,3.0,Calm,Calm,-,N/A,,Clear,0,2013-01-27 00:15:00
7:35 PM,25.3,23.0,91,30.34,3.0,Calm,Calm,-,N/A,,Scattered Clouds,0,2013-01-27 00:35:00
7:55 PM,25.3,23.0,91,30.35,1.8,Calm,Calm,-,N/A,,Scattered Clouds,0,2013-01-27 00:55:00
8:15 PM,25.3,23.0,91,30.35,3.0,Calm,Calm,-,N/A,,Mostly Cloudy,0,2013-01-27 01:15:00
8:35 PM,25.3,23.0,91,30.36,4.0,Calm,Calm,-,N/A,,Mostly Cloudy,0,2013-01-27 01:35:00
8:55 PM,22.8,20.8,92,30.37,3.0,Calm,Calm,-,N/A,,Overcast,0,2013-01-27 01:55:00
9:15 PM,25.3,23.0,91,30.37,3.0,Calm,Calm,-,N/A,,Overcast,0,2013-01-27 02:15:00
9:35 PM,25.3,23.0,91,30.39,3.0,Calm,Calm,-,N/A,,Overcast,0,2013-01-27 02:35:00
9:55 PM,25.3,23.0,91,30.40,4.0,Calm,Calm,-,N/A,,Overcast,0,2013-01-27 02:55:00
10:15 PM,25.3,23.0,91,30.42,0.8,Calm,Calm,-,N/A,,Overcast,0,2013-01-27 03:15:00
10:35 PM,25.3,23.0,91,30.42,0.2,Calm,Calm,-,N/A,Fog,Light Freezing Fog,0,2013-01-27 03:35:00
10:55 PM,25.3,23.4,92,30.43,0.2,Calm,Calm,-,N/A,Fog,Light Freezing Fog,0,2013-01-27 03:55:00
11:15 PM,25.3,23.4,92,30.44,0.2,Calm,Calm,-,N/A,Fog,Light Freezing Fog,0,2013-01-27 04:15:00
11:35 PM,25.3,23.2,91,30.44,0.2,Calm,Calm,-,N/A,Fog,Light Freezing Fog,0,2013-01-27 04:35:00
11:55 PM,25.3,23.0,91,30.44,0.2,Calm,Calm,-,N/A,Fog,Light Freezing Fog,0,2013-01-27 04:55:00